Weather History for KGFA - October, 2012

Change the Weather History Date:

Friday, October 19, 2012

  Actual Average (KGTF) Record (KGTF)
Temperature  
Mean Temperature 58 °F 44 °F  
Max Temperature 64 °F 57 °F 81 °F (1974)
Min Temperature 51 °F 32 °F 2 °F (1905)
Degree Days  
Heating Degree Days 8 21  
Month to date heating degree days 336  
Since 1 July heating degree days 743  
Cooling Degree Days 0 0  
Month to date cooling degree days 0  
Year to date cooling degree days 297  
Growing Degree Days 8 (Base 50)    
Moisture  
Dew Point 31 °F    
Average Humidity 35    
Maximum Humidity 44    
Minimum Humidity 29    
Precipitation  
Precipitation 0.00 in 0.03 in 0.43 in (1979)
Month to date precipitation 0.59  
Year to date precipitation 13.34  
Snow  
Snow 0.00 in 0.20 in 2.20 in (1930)
Month to date snowfall 2.1  
Since 1 July snowfall 3.6  
Since 1 September snowfall 3.3  
Snow Depth -    
Sea Level Pressure  
Sea Level Pressure 29.74 in    
Wind  
Wind Speed 21 mph (SSW)    
Max Wind Speed 33 mph    
Max Gust Speed 44 mph    
Visibility 10 miles    
Events      
T = Trace of Precipitation, MM = Missing Value Source: NWS Daily Summary

Daily Weather History Graph

Daily Weather History Graph

Search for Another Location

Airport or City:

Trip Planner

Search our weather history database for the weather conditions in past years. The results will help you decide how hot, cold, wet, or windy it might be!

Date:

Astronomy

Oct. 19, 2012 Rise Set
Actual Time 7:50 AM MDT 6:28 PM MDT
Civil Twilight 7:18 AM MDT 6:59 PM MDT
Nautical Twilight 6:43 AM MDT 7:35 PM MDT
Astronomical Twilight 6:07 AM MDT 8:10 PM MDT
Moon 12:51 PM MDT (10/19) 9:56 PM MDT (10/19)
Length of Visible Light 11h 40m
Length of Day
10h 38m
Waxing Crescent, 24% of the Moon is Illuminated
Oct 19
Waxing Crescent
Oct 21
First Quarter
Oct 29
Full
Nov 6
Last Quarter
Nov 13
New

Hourly Weather History & Observations

Time (MDT) Temp. Dew Point Humidity Pressure Visibility Wind Dir Wind Speed Gust Speed Precip Events Conditions
12:56 AM 51.1 °F 28.9 °F 43% 29.95 in 10.0 mi SSW 16.1 mph - N/A   Clear
1:56 AM 55.0 °F 28.0 °F 35% 29.89 in 10.0 mi South 18.4 mph - N/A   Clear
2:56 AM 53.1 °F 28.0 °F 38% 29.87 in 10.0 mi South 13.8 mph - N/A   Clear
3:56 AM 55.0 °F 27.0 °F 34% 29.83 in 10.0 mi South 16.1 mph 26.5 mph N/A   Clear
4:56 AM 55.9 °F 26.1 °F 32% 29.80 in 10.0 mi South 23.0 mph 32.2 mph N/A   Clear
5:56 AM 57.0 °F 26.1 °F 30% 29.78 in 10.0 mi South 18.4 mph - N/A   Clear
6:56 AM 55.9 °F 26.1 °F 32% 29.77 in 10.0 mi South 20.7 mph - N/A   Clear
7:56 AM 57.9 °F 27.0 °F 31% 29.80 in 10.0 mi SSW 25.3 mph 29.9 mph N/A   Clear
8:56 AM 59.0 °F 27.0 °F 29% 29.80 in 10.0 mi SSW 26.5 mph 35.7 mph N/A   Clear
9:56 AM 59.0 °F 30.0 °F 33% 29.79 in 10.0 mi SSW 29.9 mph 39.1 mph N/A   Clear
10:56 AM 60.1 °F 32.0 °F 35% 29.80 in 10.0 mi SSW 27.6 mph 35.7 mph N/A   Clear
11:56 AM 63.0 °F 33.1 °F 33% 29.76 in 10.0 mi SSW 31.1 mph 40.3 mph N/A   Clear
12:56 PM 64.0 °F 34.0 °F 33% 29.72 in 10.0 mi SSW 33.4 mph 43.7 mph N/A   Clear
1:56 PM 63.0 °F 35.1 °F 35% 29.70 in 10.0 mi SSW 32.2 mph 38.0 mph N/A   Clear
2:56 PM 62.1 °F 36.0 °F 38% 29.71 in 10.0 mi SSW 29.9 mph 38.0 mph N/A   Clear
3:56 PM 62.1 °F 36.0 °F 38% 29.68 in 10.0 mi SSW 28.8 mph 38.0 mph N/A   Clear
4:56 PM 63.0 °F 33.1 °F 33% 29.68 in 10.0 mi SSW 25.3 mph 35.7 mph N/A   Clear
5:56 PM 62.1 °F 33.1 °F 34% 29.69 in 10.0 mi South 8.1 mph - N/A   Overcast
6:56 PM 61.0 °F 32.0 °F 34% 29.67 in 10.0 mi SW 13.8 mph 27.6 mph N/A   Clear
7:56 PM 57.9 °F 34.0 °F 41% 29.65 in 10.0 mi SSW 15.0 mph - N/A   Clear
8:56 PM 57.9 °F 32.0 °F 37% 29.64 in 10.0 mi South 12.7 mph 18.4 mph N/A   Clear
9:56 PM 57.0 °F 32.0 °F 39% 29.62 in 10.0 mi SW 15.0 mph - N/A   Clear
10:56 PM 57.0 °F 33.1 °F 40% 29.60 in 10.0 mi SSW 23.0 mph - N/A   Clear
11:56 PM 55.9 °F 34.0 °F 44% 29.57 in 10.0 mi SSW 23.0 mph 31.1 mph N/A   Clear